OpenBCM V1.13 (Linux)

Packet Radio Mailbox

DB0FHN

[JN59NK Nuernberg]

 Login: GUEST





  
CX2SA  > KEPS     01.10.04 05:16l 207 Lines 5448 Bytes #999 (0) @ AMSAT
BID : ORB04274.W
Read: GUEST
Subj: Orbital Elements  04274.WEATHER
Path: DB0FHN<DB0MRW<DB0SIF<DB0EA<DB0SM<DB0PKE<DB0GOS<ON0AR<ON0AR<LU6DTS<
      LU7EC<ED1ZAC<CX2SA
Sent: 041001/0308Z @:CX2SA.LAV.URY.SA #:20916 [Minas] FBB7.00e $:ORB04274.W
From: CX2SA@CX2SA.LAV.URY.SA
To  : KEPS@AMSAT


HR AMSAT ORBITAL ELEMENTS FOR WEATHER SATELLITES
FROM WA5QGD FORT WORTH,TX September 30, 2004
SEND SUBSCRIBE/UNSUBSCRIBE TO majordomo@amsat.org ONLY
BID: ORB04274.W
TO ALL RADIO AMATEURS BT

Satellite: NOAA-10
Catalog number: 16969
Epoch time:      04272.34518676
Element set:     408
Inclination:       98.7609 deg
RA of node:       271.5537 deg
Eccentricity:    0.0012463
Arg of perigee:   171.1321 deg
Mean anomaly:     189.0090 deg
Mean motion:   14.27213563 rev/day
Decay rate:       -4.5e-07 rev/day^2
Epoch rev:           93774
Checksum:              312

Satellite: NOAA-11
Catalog number: 19531
Epoch time:      04274.45628913
Element set:     269
Inclination:       98.8628 deg
RA of node:       357.6411 deg
Eccentricity:    0.0010982
Arg of perigee:   330.0061 deg
Mean anomaly:      30.0476 deg
Mean motion:   14.14728609 rev/day
Decay rate:      -2.07e-06 rev/day^2
Epoch rev:           82620
Checksum:              294

Satellite: NOAA-12
Catalog number: 21263
Epoch time:      04274.39351829
Element set:     755
Inclination:       98.6785 deg
RA of node:       261.0924 deg
Eccentricity:    0.0013800
Arg of perigee:   104.2417 deg
Mean anomaly:     256.0273 deg
Mean motion:   14.25414070 rev/day
Decay rate:       -5.0e-07 rev/day^2
Epoch rev:           69523
Checksum:              284

Satellite: MET-3/5
Catalog number: 21655
Epoch time:      04273.90393695
Element set:    0748
Inclination:      082.5609 deg
RA of node:       342.5468 deg
Eccentricity:    0.0013536
Arg of perigee:   159.3483 deg
Mean anomaly:     200.8189 deg
Mean motion:   13.16996308 rev/day
Decay rate:        5.1e-07 rev/day^2
Epoch rev:           63105
Checksum:              325

Satellite: MET-2/21
Catalog number: 22782
Epoch time:      04274.86951539
Element set:      18
Inclination:       82.5440 deg
RA of node:       106.6984 deg
Eccentricity:    0.0023491
Arg of perigee:   128.8684 deg
Mean anomaly:     231.4577 deg
Mean motion:   13.83570702 rev/day
Decay rate:       1.07e-06 rev/day^2
Epoch rev:           55971
Checksum:              321

Satellite: OKEAN-4
Catalog number: 23317
Epoch time:      04274.88746901
Element set:     447
Inclination:       82.5411 deg
RA of node:       139.1274 deg
Eccentricity:    0.0021102
Arg of perigee:   272.4418 deg
Mean anomaly:      87.4379 deg
Mean motion:   14.81892759 rev/day
Decay rate:       3.03e-06 rev/day^2
Epoch rev:           53750
Checksum:              305

Satellite: NOAA-14
Catalog number: 23455
Epoch time:      04274.37070178
Element set:     296
Inclination:       99.1299 deg
RA of node:       311.9666 deg
Eccentricity:    0.0009405
Arg of perigee:    17.7902 deg
Mean anomaly:     342.3598 deg
Mean motion:   14.13493085 rev/day
Decay rate:       3.65e-06 rev/day^2
Epoch rev:           50279
Checksum:              325

Satellite: SICH-1
Catalog number: 23657
Epoch time:      04274.87047419
Element set:     251
Inclination:       82.5255 deg
RA of node:       279.9392 deg
Eccentricity:    0.0022512
Arg of perigee:   254.5526 deg
Mean anomaly:     105.3203 deg
Mean motion:   14.80926259 rev/day
Decay rate:       3.46e-06 rev/day^2
Epoch rev:           48957
Checksum:              314

Satellite: NOAA-15
Catalog number: 25338
Epoch time:      04274.24967191
Element set:     745
Inclination:       98.5207 deg
RA of node:       284.4594 deg
Eccentricity:    0.0011420
Arg of perigee:    41.6143 deg
Mean anomaly:     318.5904 deg
Mean motion:   14.24453855 rev/day
Decay rate:        5.3e-07 rev/day^2
Epoch rev:           33174
Checksum:              301

Satellite: RESURS
Catalog number: 25394
Epoch time:      04273.96040626
Element set:    0915
Inclination:      098.5729 deg
RA of node:       344.1475 deg
Eccentricity:    0.0001555
Arg of perigee:   155.6579 deg
Mean anomaly:     204.4674 deg
Mean motion:   14.24024349 rev/day
Decay rate:        1.0e-07 rev/day^2
Epoch rev:           32341
Checksum:              293

Satellite: FENGYUN1
Catalog number: 25730
Epoch time:      04274.03578517
Element set:     244
Inclination:       98.6052 deg
RA of node:       280.2839 deg
Eccentricity:    0.0015333
Arg of perigee:   120.8557 deg
Mean anomaly:     239.4131 deg
Mean motion:   14.11777638 rev/day
Decay rate:      -2.90e-06 rev/day^2
Epoch rev:           27780
Checksum:              299

Satellite: OKEAN-0
Catalog number: 25860
Epoch time:      04273.96148149
Element set:    0306
Inclination:      097.7888 deg
RA of node:       304.9153 deg
Eccentricity:    0.0001337
Arg of perigee:   044.9757 deg
Mean anomaly:     315.1560 deg
Mean motion:   14.73119722 rev/day
Decay rate:       1.31e-06 rev/day^2
Epoch rev:           27969
Checksum:              316

Satellite: NOAA-16
Catalog number: 26536
Epoch time:      04274.33896133
Element set:      42
Inclination:       98.9740 deg
RA of node:       225.8254 deg
Eccentricity:    0.0011439
Arg of perigee:    81.1021 deg
Mean anomaly:     279.1377 deg
Mean motion:   14.12157023 rev/day
Decay rate:        9.4e-07 rev/day^2
Epoch rev:           20738
Checksum:              290

Satellite: NOAA-17
Catalog number: 27453
Epoch time:      04274.38278436
Element set:      66
Inclination:       98.6924 deg
RA of node:       345.4609 deg
Eccentricity:    0.0012815
Arg of perigee:    90.3037 deg
Mean anomaly:     269.9605 deg
Mean motion:   14.23574738 rev/day
Decay rate:       2.40e-06 rev/day^2
Epoch rev:           11787
Checksum:              328



Read previous mail | Read next mail


 15.06.2026 06:07:55lGo back Go up